Date String (YYYY-MM-DD hh:mm:ss) UTC,Instrument flags,Ambient pressure (hPa),Sample flow (lpm),Bypass flow (lpm),Sample temperature (°C),Ambient temperature (°C),ASC tube jacket temperature (°C),LED temperature (°C),Box temperature (°C),Sample RH (%),Span deviation,Mass concentration (μg/m³),Mass concentration (μg/m³),Mass concentration (μg/m³)
DateTimeUTC,F1_M11,P_M11,Q1_M11,Q2_M11,T1_M11,T2_M11,T3_M11,T4_M11,T5_M11,U1_M11,ZSPAN_M11,X2_M11,X0_M11,X1_M11
2023-04-09 05:00:00,,0833.1,5.00,0.00,26.0,24.3,00.0,34.3,27.5,13.7,0000.0,0003.24,0009.70,0001.94
2023-04-09 05:01:00,,0833.3,4.99,0.00,26.0,24.3,00.0,34.3,27.5,13.7,0000.0,0003.19,0009.09,0001.92
2023-04-09 05:02:00,,0833.3,5.00,0.00,26.0,24.3,00.0,34.3,27.5,13.7,0000.0,0003.14,0008.64,0001.89
2023-04-09 05:03:00,,0833.3,5.00,0.00,26.0,24.3,00.0,34.3,27.5,13.7,0000.0,0003.14,0008.46,0001.88
2023-04-09 05:04:00,,0833.2,5.01,0.00,26.0,24.3,00.0,34.3,27.5,13.7,0000.0,0003.17,0008.67,0001.87
2023-04-09 05:05:00,,0832.9,5.01,0.00,26.0,24.3,00.0,34.3,27.5,13.7,0000.0,0003.13,0008.66,0001.86
2023-04-09 05:06:00,,0832.8,5.00,0.00,26.0,24.3,00.0,34.3,27.5,13.8,0000.0,0003.12,0009.15,0001.85
2023-04-09 05:07:00,,0832.9,5.00,0.00,26.0,24.3,00.0,34.3,27.5,13.8,0000.0,0003.15,0009.53,0001.85
2023-04-09 05:08:00,,0832.9,4.99,0.00,26.0,24.3,00.0,34.3,27.6,13.8,0000.0,0003.12,0009.58,0001.84
2023-04-09 05:09:00,,0833.0,5.00,0.00,26.0,24.3,00.0,34.3,27.6,13.8,0000.0,0003.13,0009.29,0001.83
2023-04-09 05:10:00,,0832.8,5.01,0.00,26.0,24.3,00.0,34.3,27.6,13.8,0000.0,0003.12,0009.12,0001.84
2023-04-09 05:11:00,,0832.8,5.01,0.00,26.0,24.3,00.0,34.3,27.6,13.8,0000.0,0003.13,0008.89,0001.85
2023-04-09 05:12:00,,0832.8,5.00,0.00,25.9,24.3,00.0,34.3,27.5,13.8,0000.0,0003.15,0009.34,0001.85
2023-04-09 05:13:00,,0832.8,5.00,0.00,25.9,24.3,00.0,34.3,27.5,13.8,0000.0,0003.10,0009.53,0001.83
2023-04-09 05:14:00,,0832.8,4.99,0.00,25.9,24.3,00.0,34.3,27.5,13.8,0000.0,0003.10,0009.72,0001.83
2023-04-09 05:15:00,,0832.8,5.00,0.00,25.9,24.3,00.0,34.3,27.5,13.8,0000.0,0003.09,0009.53,0001.83
2023-04-09 05:16:00,,0832.8,5.00,0.00,25.9,24.3,00.0,34.3,27.6,13.8,0000.0,0003.14,0010.26,0001.83
2023-04-09 05:17:00,,0832.8,5.01,0.00,26.0,24.3,00.0,34.3,27.6,13.8,0000.0,0003.19,0010.00,0001.83
2023-04-09 05:18:00,,0832.8,4.99,0.00,25.9,24.3,00.0,34.2,27.6,13.8,0000.0,0003.21,0010.17,0001.83
2023-04-09 05:19:00,,0832.8,5.02,0.00,25.9,24.3,00.0,34.2,27.6,13.8,0000.0,0003.23,0010.12,0001.84
2023-04-09 05:20:00,,0832.9,5.01,0.00,25.9,24.3,00.0,34.2,27.6,13.8,0000.0,0003.28,0010.22,0001.83
2023-04-09 05:21:00,,0833.0,4.98,0.00,26.0,24.3,00.0,34.3,27.5,13.8,0000.0,0003.29,0010.59,0001.84
2023-04-09 05:22:00,,0833.4,5.00,0.00,26.0,24.3,00.0,34.3,27.5,13.8,0000.0,0003.28,0010.61,0001.84
2023-04-09 05:23:00,,0833.2,5.00,0.00,26.0,24.3,00.0,34.3,27.6,13.9,0000.0,0003.26,0010.23,0001.85
2023-04-09 05:24:00,,0833.4,4.99,0.00,26.0,24.3,00.0,34.3,27.6,13.9,0000.0,0003.30,0009.95,0001.87
2023-04-09 05:25:00,,0832.9,5.00,0.00,25.9,24.3,00.0,34.3,27.6,13.9,0000.0,0003.31,0009.69,0001.87
2023-04-09 05:26:00,,0832.9,5.00,0.00,25.9,24.3,00.0,34.3,27.6,13.9,0000.0,0003.33,0009.63,0001.85
2023-04-09 05:27:00,,0832.9,5.01,0.00,25.9,24.3,00.0,34.2,27.6,13.9,0000.0,0003.30,0008.63,0001.84
2023-04-09 05:28:00,,0833.0,5.01,0.00,25.9,24.3,00.0,34.2,27.5,13.9,0000.0,0003.26,0008.94,0001.85
2023-04-09 05:29:00,,0833.0,5.00,0.00,25.9,24.3,00.0,34.2,27.5,13.9,0000.0,0003.23,0008.41,0001.84
2023-04-09 05:30:00,,0832.9,5.01,0.00,25.9,24.3,00.0,34.2,27.5,14.0,0000.0,0003.22,0008.00,0001.85
2023-04-09 05:31:00,,0833.0,5.00,0.00,25.9,24.3,00.0,34.2,27.5,14.0,0000.0,0003.16,0007.92,0001.85
2023-04-09 05:32:00,,0833.0,4.99,0.00,25.9,24.3,00.0,34.2,27.5,14.0,0000.0,0003.16,0007.94,0001.84
2023-04-09 05:33:00,,0833.0,4.99,0.00,25.9,24.3,00.0,34.2,27.5,14.0,0000.0,0003.20,0008.02,0001.85
2023-04-09 05:34:00,,0832.9,5.00,0.00,25.9,24.3,00.0,34.2,27.5,14.0,0000.0,0003.23,0008.06,0001.85
2023-04-09 05:35:00,,0832.9,5.01,0.00,25.9,24.3,00.0,34.2,27.5,14.0,0000.0,0003.23,0008.19,0001.87
2023-04-09 05:36:00,,0833.1,5.00,0.00,25.9,24.3,00.0,34.2,27.5,14.0,0000.0,0003.27,0008.27,0001.86
2023-04-09 05:37:00,,0832.9,5.00,0.00,25.9,24.3,00.0,34.2,27.5,14.0,0000.0,0003.25,0008.38,0001.89
2023-04-09 05:38:00,,0832.9,4.99,0.00,25.9,24.3,00.0,34.2,27.5,14.0,0000.0,0003.25,0008.37,0001.88
2023-04-09 05:39:00,,0833.0,5.00,0.00,25.9,24.3,00.0,34.2,27.5,14.0,0000.0,0003.25,0007.79,0001.88
2023-04-09 05:40:00,,0833.1,4.99,0.00,25.9,24.3,00.0,34.2,27.5,14.0,0000.0,0003.26,0007.91,0001.88
2023-04-09 05:41:00,,0833.0,5.00,0.00,25.9,24.3,00.0,34.2,27.5,14.0,0000.0,0003.27,0008.05,0001.88
2023-04-09 05:42:00,,0833.1,5.01,0.00,25.9,24.3,00.0,34.2,27.5,14.0,0000.0,0003.26,0008.02,0001.88
2023-04-09 05:43:00,,0833.3,5.00,0.00,25.9,24.3,00.0,34.2,27.5,14.0,0000.0,0003.23,0008.89,0001.87
2023-04-09 05:44:00,,0833.2,4.99,0.00,25.9,24.2,00.0,34.2,27.5,14.0,0000.0,0003.24,0008.98,0001.88
2023-04-09 05:45:00,,0833.4,4.99,0.00,25.9,24.2,00.0,34.2,27.5,14.1,0000.0,0003.24,0009.09,0001.88
2023-04-09 05:46:00,,0833.0,5.01,0.00,25.9,24.2,00.0,34.2,27.5,14.1,0000.0,0003.25,0010.12,0001.87
2023-04-09 05:47:00,,0833.0,5.01,0.00,25.9,24.2,00.0,34.2,27.5,14.1,0000.0,0003.22,0010.40,0001.87
2023-04-09 05:48:00,,0833.0,5.00,0.00,25.9,24.2,00.0,34.2,27.5,14.1,0000.0,0003.21,0010.31,0001.88
2023-04-09 05:49:00,,0833.0,4.98,0.00,25.9,24.2,00.0,34.2,27.5,14.1,0000.0,0003.21,0011.03,0001.88
2023-04-09 05:50:00,,0833.0,5.00,0.00,25.9,24.2,00.0,34.2,27.5,14.1,0000.0,0003.20,0010.98,0001.89
2023-04-09 05:51:00,,0833.0,5.01,0.00,25.9,24.2,00.0,34.2,27.5,14.1,0000.0,0003.19,0011.10,0001.89
2023-04-09 05:52:00,,0833.0,5.01,0.00,25.9,24.2,00.0,34.2,27.5,14.1,0000.0,0003.20,0011.35,0001.91
2023-04-09 05:53:00,,0833.1,5.00,0.00,25.9,24.2,00.0,34.2,27.5,14.1,0000.0,0003.23,0012.72,0001.93
2023-04-09 05:54:00,,0833.2,5.00,0.00,25.9,24.2,00.0,34.2,27.5,14.2,0000.0,0003.28,0011.74,0001.94
2023-04-09 05:55:00,,0833.4,5.00,0.00,25.9,24.2,00.0,34.2,27.5,14.1,0000.0,0003.25,0011.60,0001.93
2023-04-09 05:56:00,,0833.0,5.00,0.00,25.9,24.2,00.0,34.2,27.5,14.1,0000.0,0003.26,0011.54,0001.94
2023-04-09 05:57:00,,0833.0,4.99,0.00,25.9,24.2,00.0,34.2,27.5,14.1,0000.0,0003.29,0010.83,0001.95
2023-04-09 05:58:00,,0833.0,5.01,0.00,25.9,24.2,00.0,34.2,27.5,14.1,0000.0,0003.33,0011.51,0001.97
2023-04-09 05:59:00,,0833.0,5.01,0.00,25.9,24.2,00.0,34.2,27.5,14.1,0000.0,0003.34,0011.99,0001.98
